Location: Carter Cabin
(41.0271°N, 122.9339°W)
Time: 15:42:46
(UTC+00:00)

Cosmos 1680 Rocket - Pass Details

Date: 13 April 2024
Orbit: 758 x 778 km, 74.1° (Epoch: 22 May)

Event Time Altitude Azimuth Distance (km) Brightness Sun altitude
Exits shadow 12:44:37 12° 241° (WSW) 2,160 5.2 -9.8°
Maximum altitude 12:48:42 30° 299° (WNW) 1,380 4.5 -9.1°
Drops below altitude 10° 12:53:20 10° 359° (N) 2,339 6.3 -8.3°
Sets 12:56:02 0° 11° (N) 3,271 7.2 -7.8°
